When you browse on this site, cookies collect data to enhance your experience and personalize the content and advertising you see.
Visit our Privacy Policy to learn more. By continuing to use the site, you agree to this use of cookies and data.
  • In Austria
  • List of Countries
  • For 7 days
  • Water Temperature
  • Weather Map
  • News
  • Weather Widgets
  • user-avatar
    Login

    Hourly Weather Morales

    Today, 10 April, Friday

    Time Temperature Precipitation Wind Pressure Humidity
    00:00 +16°C° 0 mm 0 mps 623 mmHg 94%
    01:00 +16°C° 0 mm 0 mps 622 mmHg 93%
    02:00 +18°C° 0 mm 1 mps 622 mmHg 93%
    03:00 +16°C° 0 mm 1 mps 622 mmHg 94%
    04:00 +16°C° 0 mm 1 mps 622 mmHg 94%
    05:00 +18°C° 0 mm 1 mps 622 mmHg 93%
    06:00 +16°C° 0 mm 0 mps 623 mmHg 92%
    07:00 +16°C° 0 mm 0 mps 623 mmHg 92%
    08:00 +19°C° 0.2 mm 0 mps 625 mmHg 83%
    09:00 +22°C° 0.2 mm 0 mps 626 mmHg 74%
    10:00 +24°C° 0.2 mm 0 mps 627 mmHg 65%
    11:00 +26°C° 0.8 mm 1 mps 626 mmHg 67%
    12:00 +26°C° 0.8 mm 1 mps 626 mmHg 69%
    13:00 +27°C° 0.8 mm 1 mps 625 mmHg 70%
    14:00 +25°C° 2.4 mm 1 mps 624 mmHg 77%
    15:00 +24°C° 2.4 mm 1 mps 623 mmHg 83%
    16:00 +23°C° 2.4 mm 1 mps 622 mmHg 90%
    17:00 +22°C° 1.9 mm 1 mps 622 mmHg 92%
    18:00 +21°C° 1.9 mm 1 mps 623 mmHg 94%
    19:00 +20°C° 1.9 mm 1 mps 623 mmHg 96%
    20:00 +20°C° 6.7 mm 1 mps 623 mmHg 97%
    21:00 +18°C° 6.7 mm 0 mps 624 mmHg 98%
    22:00 +17°C° 6.7 mm 0 mps 624 mmHg 99%
    23:00 +17°C° 3.7 mm 0 mps 624 mmHg 98%

    Tomorrow, 11 April, Saturday

    Time Temperature Precipitation Wind Pressure Humidity
    00:00 +17°C° 3.7 mm 0 mps 624 mmHg 98%
    01:00 +17°C° 3.7 mm 0 mps 623 mmHg 98%
    02:00 +17°C° 0.8 mm 0 mps 623 mmHg 98%
    03:00 +16°C° 0.8 mm 0 mps 623 mmHg 97%
    04:00 +16°C° 0.8 mm 0 mps 622 mmHg 97%
    05:00 +16°C° 0.3 mm 0 mps 623 mmHg 97%
    06:00 +16°C° 0.3 mm 0 mps 623 mmHg 97%
    07:00 +16°C° 0.3 mm 0 mps 624 mmHg 97%
    08:00 +17°C° 0.4 mm 0 mps 625 mmHg 95%
    09:00 +20°C° 0.4 mm 1 mps 625 mmHg 92%
    10:00 +21°C° 0.4 mm 1 mps 626 mmHg 90%
    11:00 +21°C° 1 mm 1 mps 625 mmHg 90%
    12:00 +21°C° 1 mm 1 mps 625 mmHg 90%
    13:00 +21°C° 1 mm 1 mps 624 mmHg 89%
    14:00 +21°C° 1.4 mm 1 mps 624 mmHg 90%
    15:00 +19°C° 1.4 mm 0 mps 623 mmHg 91%
    16:00 +18°C° 1.4 mm 0 mps 623 mmHg 92%
    17:00 +18°C° 0.4 mm 0 mps 623 mmHg 94%
    18:00 +17°C° 0.4 mm 0 mps 623 mmHg 95%
    19:00 +17°C° 0.4 mm 0 mps 623 mmHg 97%
    20:00 +16°C° 0.4 mm 0 mps 623 mmHg 97%
    21:00 +16°C° 0.4 mm 0 mps 624 mmHg 97%
    22:00 +16°C° 0.4 mm 0 mps 624 mmHg 97%
    23:00 +16°C° 0.5 mm 0 mps 624 mmHg 97%

    Day after tomorrow, 12 April, Sunday

    Time Temperature Precipitation Wind Pressure Humidity
    00:00 +16°C° 0.5 mm 0 mps 624 mmHg 97%
    01:00 +16°C° 0.5 mm 0 mps 623 mmHg 97%
    02:00 +16°C° 0.1 mm 0 mps 623 mmHg 97%
    03:00 +16°C° 0.1 mm 0 mps 623 mmHg 97%
    04:00 +16°C° 0.1 mm 0 mps 623 mmHg 96%
    05:00 +16°C° 0.1 mm 0 mps 623 mmHg 96%
    06:00 +16°C° 0.1 mm 0 mps 624 mmHg 96%
    07:00 +16°C° 0.1 mm 0 mps 624 mmHg 96%
    08:00 +17°C° 0.2 mm 0 mps 625 mmHg 95%
    09:00 +20°C° 0.2 mm 1 mps 625 mmHg 93%
    10:00 +21°C° 0.2 mm 1 mps 626 mmHg 91%
    11:00 +22°C° 0.5 mm 1 mps 626 mmHg 86%
    12:00 +23°C° 0.5 mm 1 mps 626 mmHg 82%
    13:00 +24°C° 0.5 mm 1 mps 625 mmHg 77%
    14:00 +23°C° 1.3 mm 1 mps 625 mmHg 81%
    15:00 +20°C° 1.3 mm 0 mps 624 mmHg 86%
    16:00 +19°C° 1.3 mm 0 mps 623 mmHg 90%
    17:00 +19°C° 0.8 mm 0 mps 623 mmHg 92%
    18:00 +18°C° 0.8 mm 0 mps 624 mmHg 93%
    19:00 +17°C° 0.8 mm 0 mps 624 mmHg 95%
    20:00 +17°C° 0.7 mm 0 mps 624 mmHg 95%
    21:00 +17°C° 0.7 mm 0 mps 625 mmHg 95%
    22:00 +17°C° 0.7 mm 0 mps 625 mmHg 95%
    23:00 +16°C° 0.3 mm 0 mps 625 mmHg 95%

    13 April, Monday

    Time Temperature Precipitation Wind Pressure Humidity
    00:00 +16°C° 0.3 mm 0 mps 624 mmHg 95%
    01:00 +16°C° 0.3 mm 0 mps 624 mmHg 95%
    02:00 +16°C° 0.4 mm 0 mps 624 mmHg 95%
    03:00 +16°C° 0.4 mm 0 mps 624 mmHg 96%
    04:00 +16°C° 0.4 mm 0 mps 623 mmHg 96%
    05:00 +16°C° 0.7 mm 0 mps 624 mmHg 95%
    06:00 +16°C° 0.7 mm 0 mps 624 mmHg 95%
    07:00 +16°C° 0.7 mm 0 mps 625 mmHg 94%
    08:00 +17°C° 0.5 mm 0 mps 625 mmHg 92%
    09:00 +18°C° 0.5 mm 0 mps 626 mmHg 89%
    10:00 +21°C° 0.5 mm 1 mps 627 mmHg 87%
    11:00 +22°C° 1.2 mm 1 mps 626 mmHg 85%
    12:00 +23°C° 1.2 mm 1 mps 626 mmHg 84%
    13:00 +24°C° 1.2 mm 1 mps 625 mmHg 82%
    14:00 +23°C° 2 mm 1 mps 625 mmHg 84%
    15:00 +23°C° 2 mm 1 mps 624 mmHg 87%
    16:00 +22°C° 2 mm 1 mps 624 mmHg 89%
    17:00 +21°C° 1 mm 1 mps 624 mmHg 92%
    18:00 +20°C° 1 mm 1 mps 624 mmHg 94%
    19:00 +17°C° 1 mm 0 mps 624 mmHg 96%
    20:00 +16°C° 0.5 mm 0 mps 624 mmHg 96%
    21:00 +16°C° 0.5 mm 0 mps 625 mmHg 96%
    22:00 +16°C° 0.5 mm 0 mps 625 mmHg 96%
    23:00 +16°C° 0.4 mm 0 mps 625 mmHg 96%

    14 April, Tuesday

    Time Temperature Precipitation Wind Pressure Humidity
    00:00 +16°C° 0.4 mm 0 mps 624 mmHg 97%
    01:00 +16°C° 0.4 mm 0 mps 624 mmHg 97%
    02:00 +16°C° 0.5 mm 0 mps 624 mmHg 97%
    03:00 +16°C° 0.5 mm 0 mps 624 mmHg 97%
    04:00 +16°C° 0.5 mm 0 mps 623 mmHg 97%
    05:00 +16°C° 0.4 mm 0 mps 624 mmHg 97%
    06:00 +16°C° 0.4 mm 0 mps 624 mmHg 97%
    07:00 +16°C° 0.4 mm 0 mps 624 mmHg 96%
    08:00 +17°C° 0.5 mm 0 mps 625 mmHg 94%
    09:00 +17°C° 0.5 mm 0 mps 625 mmHg 93%
    10:00 +18°C° 0.5 mm 0 mps 625 mmHg 91%
    11:00 +21°C° 0.8 mm 1 mps 625 mmHg 86%
    12:00 +23°C° 0.8 mm 1 mps 625 mmHg 81%
    13:00 +24°C° 0.8 mm 1 mps 624 mmHg 77%
    14:00 +23°C° 1.5 mm 1 mps 624 mmHg 80%
    15:00 +23°C° 1.5 mm 1 mps 623 mmHg 83%
    16:00 +22°C° 1.5 mm 1 mps 623 mmHg 87%
    17:00 +21°C° 1 mm 1 mps 623 mmHg 90%
    18:00 +20°C° 1 mm 1 mps 623 mmHg 93%
    19:00 +17°C° 1 mm 0 mps 623 mmHg 97%
    20:00 +16°C° 0.4 mm 0 mps 623 mmHg 97%
    21:00 +16°C° 0.4 mm 0 mps 624 mmHg 97%
    22:00 +16°C° 0.4 mm 0 mps 624 mmHg 97%
    23:00 +16°C° 0.4 mm 0 mps 624 mmHg 97%

    15 April, Wednesday

    Time Temperature Precipitation Wind Pressure Humidity
    00:00 +16°C° 0.4 mm 0 mps 624 mmHg 97%
    01:00 +15°C° 0.4 mm 0 mps 623 mmHg 97%
    02:00 +16°C° 1.4 mm 0 mps 623 mmHg 97%
    03:00 +16°C° 1.4 mm 0 mps 623 mmHg 97%
    04:00 +16°C° 1.4 mm 0 mps 623 mmHg 97%
    05:00 +16°C° 1.7 mm 0 mps 623 mmHg 97%
    06:00 +16°C° 1.7 mm 0 mps 623 mmHg 97%
    07:00 +16°C° 1.7 mm 0 mps 624 mmHg 97%
    08:00 +16°C° 1.3 mm 0 mps 624 mmHg 97%
    09:00 +16°C° 1.3 mm 0 mps 624 mmHg 97%
    10:00 +16°C° 1.3 mm 0 mps 625 mmHg 96%
    11:00 +17°C° 0.7 mm 0 mps 624 mmHg 96%
    12:00 +17°C° 0.7 mm 0 mps 624 mmHg 96%
    13:00 +17°C° 0.7 mm 0 mps 624 mmHg 95%
    14:00 +17°C° 0.3 mm 0 mps 623 mmHg 94%
    15:00 +18°C° 0.3 mm 0 mps 623 mmHg 93%
    16:00 +18°C° 0.3 mm 0 mps 623 mmHg 91%
    17:00 +17°C° 0.2 mm 0 mps 623 mmHg 94%
    18:00 +17°C° 0.2 mm 0 mps 623 mmHg 96%
    19:00 +16°C° 0.2 mm 0 mps 623 mmHg 98%
    20:00 +16°C° 0 mm 0 mps 624 mmHg 97%
    21:00 +16°C° 0 mm 0 mps 624 mmHg 97%
    22:00 +15°C° 0 mm 0 mps 624 mmHg 96%
    23:00 +15°C° 0 mm 0 mps 624 mmHg 96%
    Show more